Location: Staunton
(38.1490°N, 79.0720°W)
Time: 02:14:22
(UTC-04:00)

ISS - Pass Details

Date: 21 May 2018
Orbit: 402 x 407 km, 51.6° (Epoch: 24 May)

Event Time Altitude Azimuth Distance (km) Brightness Sun altitude
Rises 02:32:49 0° 319° (NW) 2,317 0.4 -28.7°
Reaches altitude 10° 02:37:01 10° 11° (NNE) 1,456 -0.1 -28.4°
Maximum altitude 02:37:07 10° 14° (NNE) 1,455 -0.1 -28.4°
Drops below altitude 10° 02:37:14 10° 16° (NNE) 1,455 -0.1 -28.4°
Sets 02:41:26 0° 68° (ENE) 2,313 0.6 -28.1°
